{"data":{"norad_id":59539,"intl_designator":"2024-074F","name":"STARLINK-31539","alt_names":[],"object_type":"PAYLOAD","status":"ACTIVE","operator":null,"country":"US","launch_date":"2024-04-18","launch_site_code":"AFETR","launch_vehicle":null,"mission":null,"orbit_class":"UNKNOWN","rcs_meters":null,"size_class":null,"mass_kg":null,"dimensions":null,"purposes":["comms"],"wikipedia_slug":null,"has_3d_model":false,"image_url":null,"decayed_at":null,"tle_current":{"epoch":"2026-09-21T10:59:46.312224Z","epoch_age_seconds":85454,"freshness":"FRESH","line1":"1 59539U 24074F   26264.45817491  .00000050  00000+0  11325-4 0  9997","line2":"2 59539  43.0021 318.0089 0001072 273.2301  86.8428 15.27577200135955","mean_motion":15.275772,"eccentricity":0.0001072,"inclination_deg":43.0021,"raan_deg":318.0089,"arg_perigee_deg":273.2301,"mean_anomaly_deg":86.8428,"bstar":1.1325e-5,"rev_number":13595,"period_min":94.266921501578,"perigee_km":482.32196021147,"apogee_km":483.79300030804,"semimajor_km":6861.1944802598,"source":"CELESTRAK","updated_at":"2026-09-22T09:00:48.971491Z"}}}